This demonstration page uses our WeatherBlox Daily Observations layout. Learn more.

Left ArrowRight Arrow

Hourly Observations for May 8, 2021

Temp ( °F °C ) Dew Point ( °F °C ) Humidity (%) Winds ( mph kmh ) Pressure ( in mb ) Visibility ( mi km ) Precip ( " mm )
12:15 am 00:15 Clear 56 13.1 46 7.8 70 70 ESE 17 28 29.86 1011 10 16 N/A
12:35 am 00:35 Clear 55 13 46 7.6 70 70 ESE 20 31 29.85 1011 10 16 N/A
12:55 am 00:55 Clear 55 12.8 46 7.5 70 70 ESE 17 28 29.84 1010 10 16 N/A
1:15 am 01:15 Clear 55 12.5 46 7.5 72 72 ESE 16 26 29.83 1010 10 16 N/A
1:35 am 01:35 Clear 54 12.2 46 7.5 73 73 ESE 15 24 29.83 1010 10 16 N/A
1:55 am 01:55 Clear 54 12 46 7.5 74 74 ESE 18 30 29.83 1010 10 16 N/A
2:15 am 02:15 Clear 53 11.8 46 7.6 76 76 ESE 13 20 29.82 1010 10 16 N/A
2:35 am 02:35 Clear 53 11.5 46 7.6 77 77 ESE 13 20 29.82 1010 10 16 N/A
2:55 am 02:55 Clear 53 11.4 46 7.6 78 78 ESE 12 19 29.81 1009 10 16 N/A
3:15 am 03:15 Clear 52 11.2 46 7.7 79 79 ESE 10 17 29.80 1009 10 16 N/A
3:35 am 03:35 Clear 52 10.9 46 7.6 80 80 ESE 10 17 29.78 1009 10 16 N/A
3:55 am 03:55 Clear 51 10.5 46 7.7 83 83 E 12 19 29.79 1009 10 16 N/A
4:15 am 04:15 Clear 51 10.5 46 7.8 84 84 E 12 19 29.77 1008 10 16 N/A
4:35 am 04:35 Clear 50 10.1 46 7.7 85 85 ESE 13 20 29.77 1008 10 16 N/A
4:55 am 04:55 Clear 50 10.2 46 7.8 85 85 ESE 15 24 29.76 1008 10 16 N/A
5:15 am 05:15 Clear 50 10.1 46 7.7 85 85 ESE 14 22 29.76 1008 10 16 N/A
5:35 am 05:35 Clear 50 9.8 46 7.7 87 87 ESE 14 22 29.76 1008 10 16 N/A
5:55 am 05:55 Clear 50 10.2 46 8 86 86 ESE 16 26 29.75 1007 10 16 N/A
6:15 am 06:15 Clear 50 10.2 46 7.9 86 86 ESE 18 30 29.74 1007 10 16 N/A
6:35 am 06:35 Sunny 51 10.3 46 8 86 86 SE 20 31 29.73 1007 10 16 N/A
6:55 am 06:55 Sunny 51 10.5 46 8 85 85 ESE 21 33 29.72 1006 10 16 N/A
7:15 am 07:15 Sunny 51 10.7 46 8 84 84 SE 22 35 29.71 1006 10 16 N/A
7:35 am 07:35 Sunny 52 11.3 46 8 80 80 SE 21 33 29.70 1006 10 16 N/A
7:55 am 07:55 Sunny 53 11.8 47 8.2 79 79 SE 23 37 29.69 1005 10 16 N/A
8:15 am 08:15 Sunny 55 12.5 47 8.3 76 76 SE 23 37 29.68 1005 10 16 N/A
8:35 am 08:35 Sunny 55 13 47 8.6 75 75 SE 17 28 29.67 1005 10 16 N/A
8:55 am 08:55 Sunny 57 14.1 48 9.1 72 72 SE 18 30 29.66 1004 10 16 N/A
9:15 am 09:15 Sunny 58 14.6 49 9.5 72 72 SE 22 35 29.64 1004 10 16 N/A
9:35 am 09:35 Sunny 59 15.1 49 9.6 70 70 ESE 18 30 29.63 1003 10 16 N/A
9:55 am 09:55 Sunny 61 16 50 10.2 69 69 SE 17 28 29.62 1003 10 16 N/A
10:15 am 10:15 Sunny 63 17.1 51 10.7 66 66 SE 18 30 29.60 1002 10 16 N/A
10:35 am 10:35 Sunny 64 17.9 52 11.2 65 65 SE 21 33 29.58 1002 10 16 N/A
10:55 am 10:55 Sunny 66 18.8 53 11.5 63 63 ESE 18 30 29.57 1001 10 16 N/A
11:15 am 11:15 Sunny 67 19.3 53 11.8 62 62 SE 17 28 29.55 1001 10 16 N/A
11:35 am 11:35 Sunny 67 19.7 53 11.9 61 61 SE 21 33 29.54 1000 10 16 N/A
11:55 am 11:55 Sunny 69 20.7 54 12.2 58 58 SE 22 35 29.52 1000 10 16 N/A
12:15 pm 12:15 Sunny 70 21.3 55 12.6 58 58 SE 16 26 29.54 1000 10 16 N/A
12:35 pm 12:35 Sunny 71 21.7 55 12.8 57 57 SSE 15 24 29.51 999 10 16 N/A
12:55 pm 12:55 Mostly Cloudy 72 22.1 55 12.9 56 56 SSE 14 22 29.51 999 10 16 N/A
1:15 pm 13:15 Cloudy 71 21.9 55 12.7 56 56 SSE 13 20 29.51 999 10 16 N/A
1:35 pm 13:35 Mostly Cloudy 71 21.5 55 12.8 58 58 S 10 17 29.51 999 10 16 N/A
1:55 pm 13:55 Cloudy 71 21.5 55 12.9 58 58 SSE 10 17 29.51 999 10 16 N/A
2:15 pm 14:15 Cloudy 71 21.6 56 13.1 59 59 SE 9 15 29.50 999 10 16 N/A
2:35 pm 14:35 Mostly Cloudy 71 21.5 55 13 59 59 SSE 10 17 29.50 999 10 16 N/A
2:55 pm 14:55 Cloudy 73 22.8 56 13.2 55 55 SE 8 13 29.49 998 10 16 N/A
3:15 pm 15:15 Cloudy 72 22.3 56 13.3 57 57 SSE 6 9 29.49 999 10 16 N/A
3:35 pm 15:35 Cloudy 73 22.5 56 13.2 56 56 E 3 6 29.49 999 10 16 N/A
3:55 pm 15:55 Cloudy 73 22.8 57 13.8 57 57 E 3 6 29.48 998 10 16 N/A
4:15 pm 16:15 Cloudy 73 22.7 56 13.6 57 57 NE 10 17 29.48 998 10 16 N/A
4:35 pm 16:35 Cloudy with Nearby Thunderstorms 73 22.5 56 13.5 57 57 NE 10 17 29.48 998 10 16 N/A
4:55 pm 16:55 Cloudy 72 22.2 56 13.6 58 58 NNE 9 15 29.49 999 10 16 N/A
5:15 pm 17:15 Cloudy 72 22 55 13 57 57 NE 25 41 29.49 999 10 16 N/A
5:35 pm 17:35 Cloudy 67 19.3 54 12 63 63 NE 25 41 29.52 1000 10 16 N/A
5:55 pm 17:55 Mostly Cloudy with Thunderstorms 64 17.9 49 9.4 58 58 NE 29 46 29.54 1000 10 16 N/A
6:15 pm 18:15 Mostly Cloudy 63 17.2 47 8.3 56 56 NNE 26 43 29.55 1001 10 16 N/A
6:35 pm 18:35 Cloudy 62 16.5 46 7.5 56 56 NE 30 48 29.57 1001 10 16 N/A
6:55 pm 18:55 Cloudy 60 15.8 44 6.6 55 55 NE 30 48 29.59 1002 10 16 N/A
7:15 pm 19:15 Cloudy 59 15 43 6.1 56 56 NNE 25 41 29.62 1003 10 16 N/A
7:35 pm 19:35 Cloudy with Nearby Thunderstorms 58 14.5 42 5.7 56 56 NNE 25 41 29.63 1004 10 16 N/A
7:55 pm 19:55 Cloudy 56 13.6 42 5.4 58 58 NNE 28 44 29.66 1004 10 16 N/A
8:15 pm 20:15 Cloudy with Nearby Thunderstorms 55 13 41 4.8 58 58 N 28 44 29.69 1005 10 16 N/A
8:35 pm 20:35 Cloudy 54 12.1 40 4.4 60 60 N 29 46 29.72 1007 10 16 N/A
8:55 pm 20:55 Cloudy 52 11 38 3.4 60 60 NNE 32 52 29.74 1007 10 16 N/A
9:15 pm 21:15 Cloudy 50 9.8 39 4.1 68 68 N 26 43 29.76 1008 10 16 N/A
9:35 pm 21:35 Cloudy 48 9 39 4.1 72 72 N 30 48 29.79 1009 10 16 N/A
9:55 pm 21:55 Cloudy 47 8.2 39 3.8 74 74 NNE 30 48 29.80 1009 10 16 N/A
10:15 pm 22:15 Cloudy 46 7.8 38 3.6 75 75 NNE 25 41 29.81 1010 10 16 N/A
10:35 pm 22:35 Mostly Cloudy 45 7.2 39 3.7 79 79 NE 23 37 29.84 1010 10 16 N/A
10:55 pm 22:55 Cloudy 46 7.5 39 3.7 77 77 NNE 21 33 29.86 1011 10 16 N/A
11:15 pm 23:15 Partly Cloudy 45 7 38 3.5 79 79 NNE 15 24 29.87 1011 10 16 N/A
11:35 pm 23:35 Partly Cloudy 44 6.4 38 3.4 81 81 NNE 16 26 29.87 1012 10 16 N/A
11:55 pm 23:55 Partly Cloudy 43 6.2 38 3.2 81 81 NNE 14 22 29.89 1012 10 16 N/A

Powered by AerisWeather